Regional Weather Roundup
Issued by NWS

Home | Current Version | Previous Version | Graphics & Text | Print | Product List | Glossary Off
Versions: 1 2 3 4 5 6 7 8 9 10 11 12 13 14 15 16 17 18 19 20 21 22 23 24 25 26 27 28 29 30 31 32 33 34 35 36 37 38 39 40 41 42 43 44 45 46 47 48 49 50

000
ASUS43 KMKX 061500
RWRWI

WISCONSIN REGIONAL WEATHER ROUNDUP
NATIONAL WEATHER SERVICE MILWAUKEE/SULLIVAN WI
1000 AM CDT FRI MAY 06 2016

NOTE: "FAIR" INDICATES FEW OR NO CLOUDS BELOW 12,000 FEET WITH NO
SIGNIFICANT WEATHER AND/OR OBSTRUCTIONS TO VISIBILITY.

WIZ001-002-006>008-014>016-023>028-061600-
NORTHWEST WISCONSIN

CITY           SKY/WX    TMP DP  RH WIND       PRES   REMARKS
SUPERIOR ARPT  SUNNY     79  48  33 SW7       29.75F
ASHLAND        SUNNY     82  47  29 W9G18     29.77F HX  80
HAYWARD        SUNNY     74  44  34 SW8       29.83F
SIREN          SUNNY     73  42  32 W8G16     29.83F
CUMBERLAND     SUNNY     72  41  33 W10       29.85F
RICE LAKE      SUNNY     73  41  31 W10       29.86F
CHETEK         SUNNY     76  46  35 W5        29.86S
LADYSMITH      SUNNY     70  48  45 CALM      29.87F
EAU CLAIRE     NOT AVBL
MENOMONIE      SUNNY     76  44  31 W8        29.86F
NEW RICHMOND   SUNNY     73  46  37 SW7       29.86F
OSCEOLA        SUNNY     74  46  35 SW6       29.87F
$$

WIZ003>005-009-010-017-018-061600-
NORTH CENTRAL WISCONSIN

CITY           SKY/WX    TMP DP  RH WIND       PRES   REMARKS
MANITOWISH WTR MOSUNNY   71  46  39 W10       29.83F
ARBOR VITAE    MOSUNNY   72  44  35 W9        29.84S
WOODRUFF       MOSUNNY   72  44  35 W9        29.84S
RHINELANDER    SUNNY     74  43  32 NW9       29.86S
EAGLE RIVER    SUNNY     68  39  35 W6        29.84F
LAND O LAKES   SUNNY     70  40  33 W5        29.84F
PHILLIPS       SUNNY     72  47  40 W6        29.85F
TOMAHAWK       SUNNY     70  41  34 W8        29.86S
MEDFORD        SUNNY     66  45  45 W9        29.87F
MERRILL        SUNNY     64  45  51 CALM      29.87F
$$

WIZ029-030-035-036-043>047-061600-
CENTRAL WISCONSIN

CITY           SKY/WX    TMP DP  RH WIND       PRES   REMARKS
WAUSAU         SUNNY     70  44  39 W9        29.86S
MOSINEE        MOSUNNY   63  45  51 SW5       29.89S
MARSHFIELD     SUNNY     69  44  40 W10       29.87F
STEVENS POINT  MOSUNNY   64  41  42 SW9       29.89F
WAUPACA        MOSUNNY   68  42  38 SW10      29.89F
WAUTOMA        PTSUNNY   66  43  43 SW6       29.91F
WISC RAPIDS    MOSUNNY   67  42  40 SW7       29.90F
CAMP DOUGLAS   NOT AVBL
$$

WIZ011>013-019>022-031-037>040-048>050-061600-
NORTHEAST WISCONSIN

CITY           SKY/WX    TMP DP  RH WIND       PRES   REMARKS
ANTIGO         SUNNY     65  46  50 CALM      29.87F
SHAWANO        SUNNY     67  41  39 SW6       29.87F
OCONTO         SUNNY     66  42  42 SW12      29.86S
STURGEON BAY   SUNNY     66  43  42 S10       29.89F
GREEN BAY      SUNNY     67  45  45 SW10      29.88F
MANITOWOC      NOT AVBL
APPLETON       PTSUNNY   64  39  39 SW13      29.88F
CLINTONVILLE   SUNNY     64  43  45 SW8       29.87F
OSHKOSH        SUNNY     66  43  43 VRB6      29.89F
$$

WIZ032>034-041-042-053>061-061600-
SOUTHWEST WISCONSIN

CITY           SKY/WX    TMP DP  RH WIND       PRES   REMARKS
LA CROSSE      SUNNY     68  45  43 S10       29.89F
SPARTA         SUNNY     68  44  41 W9        29.91S
VIROQUA        SUNNY     67  43  41 SW7       29.93F
BOSCOBEL       MOSUNNY   67  44  43 SW7       29.94F
PRAIRIE DU CHI SUNNY     62  43  49 CALM      29.94F
PLATTEVILLE    SUNNY     63  43  49 CALM      29.98R
$$

WIZ056-057-062-063-064-067-068-061600-
SOUTH CENTRAL WISCONSIN

CITY           SKY/WX    TMP DP  RH WIND       PRES   REMARKS
REEDSBURG      MOSUNNY   62  44  52 CALM      29.93S
BARABOO/DELLS  PTSUNNY   63  39  40 SW3       29.94S
LONE ROCK      NOT AVBL
MINERAL POINT  MOSUNNY   61  45  55 CALM      29.97S
MADISON        PTSUNNY   60  41  49 SW5       29.94F
MIDDLETON      MOSUNNY   65  44  46 SW8       29.94F
WATERTOWN      MOSUNNY   66  43  44 SW8       29.93F
MONROE         PTSUNNY   61  43  51 SW7       29.98R
JANESVILLE     MOSUNNY   66  43  42 SW10      29.95F
$$

WIZ051-052-058>065-066-070>072-061600-
SOUTHEAST WISCONSIN

CITY           SKY/WX    TMP DP  RH WIND       PRES   REMARKS
MILWAUKEE      MOSUNNY   67  38  34 W9        29.94F
WAUKESHA       SUNNY     66  37  34 SW9       29.95F
MILWAUKEE/TIMM NOT AVBL
RACINE         CLOUDY    68  42  38 SW9       29.96F
BURLINGTON     MOSUNNY   62  39  42 S8        29.96S
KENOSHA        CLOUDY    68  42  38 SW12      29.96F
FOND DU LAC    SUNNY     67  43  41 SW10      29.91F
SHEBOYGAN      SUNNY     70  42  36 SW13      29.90F
WEST BEND      SUNNY     66  36  32 SW14      29.92F
JUNEAU         MOSUNNY   64  43  47 SW12      29.95S
$$

LSZ147-162-061600-
LAKE SUPERIOR

STATION/POSITION TIME  TEMP    WIND        PRES    WAVE
                       AIR SEA DIR/SP/G            HT/PER
                 (UTC) (F)     (DEG/KT/KT) (MB)    (FT/S)
W MID LAKE BUOY  1250   44 37  200/  6/  8 1008.3R   1/ 3
DEVILS ISLAND    1400   60     230/ 18/ 20 1006.9F
SAXON HARBOR     1440   78     220/  7/ 13 1007.5F
$$

LMZ867-665-643>646-061600-
LAKE MICHIGAN

STATION/POSITION TIME  TEMP    WIND        PRES    WAVE
                       AIR SEA DIR/SP/G            HT/PER
                 (UTC) (F)     (DEG/KT/KT) (MB)    (FT/S)
CHAMBERS ISLAND  1400   59     190/  7/ 16 1011.5F
N MID LAKE BUOY  1250   42 39  190/ 14/ 16 1012.2F   1/ 3
NORTHPORT PIER   1400   49     150/  9/ 11 1011.9S
ALGOMA LAKESHORE 1316          210/  8/  9   N/A
KEWAUNEE LAKESHO 1400   47     160/  9/ 10 1011.7F
SHEBOYGAN LAKESH 1400   55     180/ 11/ 12 1013.6F
PORT WASHINGTON  1400   56     170/  6/ 24 1014.2F
S MID LAKE BUOY  1250   44 40  190/  8/  8 1015.2S   1
KENOSHA   LAKESH 1400   61     250/  9/ 14 1014.9S
$$

TC  - TEMPERATURE IN CELSIUS
VSB - VISIBILITY IN STATUTE MILES
WCI - WIND CHILL INDEX
HX  - HEAT INDEX





USA.gov is the U.S. government's official web portal to all federal, state and local government web resources and services.